Location: Newark
(37.9800°N, 91.3000°W)
Time: 14:10:48
(UTC+00:00)

NOAA 19 - Pass Details

Date: 09 December 2019
Orbit: 840 x 862 km, 99.2° (Epoch: 17 January)

Event Time Altitude Azimuth Distance (km) Brightness Sun altitude
Rises 23:05:10 0° 171° (S) 3,413 8.6 -4.3°
Reaches altitude 10° 23:07:32 10° 173° (S) 2,483 7.9 -4.7°
Maximum altitude 23:13:02 70° 257° (WSW) 914 5.7 -5.7°
Drops below altitude 10° 23:18:35 10° 341° (NNW) 2,506 7.6 -6.7°
Sets 23:21:00 0° 344° (NNW) 3,447 8.3 -7.1°
